�������l�o���
Date,Time,MP-1(��Sv/h),MP-2(��Sv/h),MP-3(��Sv/h),MP-4(��Sv/h),MP-5(��Sv/h),MP-6(��Sv/h),MP-7(��Sv/h),MP-8(��Sv/h),����,����(m/s),���J
2020/06/13,00:00,0.717,1.028,0.655,1.258,0.904,0.406,0.703,0.655,�k�k��,4.0,��
2020/06/13,00:10,0.717,1.027,0.655,1.253,0.905,0.408,0.703,0.656,�k�k��,3.9,��
2020/06/13,00:20,0.716,1.025,0.656,1.257,0.903,0.406,0.705,0.657,�k�k��,5.2,��
2020/06/13,00:30,0.716,1.027,0.655,1.253,0.904,0.408,0.705,0.656,�k�k��,4.9,��
2020/06/13,00:40,0.715,1.028,0.655,1.257,0.904,0.406,0.705,0.656,�k�k��,5.0,��
2020/06/13,00:50,0.716,1.026,0.653,1.254,0.905,0.406,0.705,0.656,�k�k��,5.6,��
2020/06/13,01:00,0.715,1.024,0.654,1.255,0.904,0.407,0.705,0.656,�k�k��,6.3,��
2020/06/13,01:10,0.715,1.026,0.655,1.257,0.904,0.405,0.704,0.656,�k�k��,6.0,��
2020/06/13,01:20,0.717,1.025,0.655,1.253,0.904,0.406,0.704,0.657,�k�k��,6.0,��
2020/06/13,01:30,0.718,1.027,0.654,1.257,0.906,0.406,0.704,0.657,�k�k��,5.5,��
2020/06/13,01:40,0.716,1.025,0.654,1.255,0.906,0.406,0.702,0.655,�k,5.0,��
2020/06/13,01:50,0.715,1.027,0.654,1.256,0.906,0.405,0.704,0.657,�k,5.0,�L
2020/06/13,02:00,0.717,1.024,0.655,1.255,0.903,0.406,0.704,0.656,�k,5.0,�L
2020/06/13,02:10,0.716,1.026,0.654,1.257,0.903,0.404,0.704,0.654,�k�k��,4.2,��
2020/06/13,02:20,0.715,1.025,0.653,1.254,0.904,0.404,0.704,0.654,�k,3.8,��
2020/06/13,02:30,0.716,1.025,0.654,1.256,0.902,0.405,0.703,0.656,�k,3.3,��
2020/06/13,02:40,0.717,1.024,0.654,1.253,0.903,0.404,0.705,0.657,�k�k��,3.4,��
2020/06/13,02:50,0.715,1.026,0.653,1.256,0.901,0.404,0.702,0.657,�k,3.9,��
2020/06/13,03:00,0.716,1.029,0.652,1.254,0.903,0.404,0.705,0.655,�k,3.3,��
2020/06/13,03:10,0.715,1.025,0.653,1.255,0.904,0.406,0.703,0.656,�k��,3.0,��
2020/06/13,03:20,0.716,1.026,0.653,1.254,0.903,0.405,0.703,0.658,�k��,3.3,��
2020/06/13,03:30,0.717,1.026,0.655,1.254,0.904,0.403,0.704,0.657,�k��,3.7,��
2020/06/13,03:40,0.716,1.024,0.654,1.255,0.903,0.405,0.703,0.657,�k��,4.1,��
2020/06/13,03:50,0.716,1.027,0.654,1.256,0.901,0.405,0.704,0.657,�k��,3.1,��
2020/06/13,04:00,0.717,1.023,0.655,1.254,0.902,0.403,0.703,0.657,�k�k��,4.0,��
2020/06/13,04:10,0.714,1.025,0.654,1.254,0.904,0.406,0.704,0.657,�k�k��,3.9,��
2020/06/13,04:20,0.715,1.026,0.653,1.256,0.903,0.404,0.705,0.656,�k�k��,4.0,��
2020/06/13,04:30,0.716,1.024,0.654,1.254,0.903,0.404,0.704,0.656,�k�k��,5.0,��
2020/06/13,04:40,0.716,1.025,0.653,1.256,0.904,0.405,0.704,0.656,�k,5.0,�L
2020/06/13,04:50,0.716,1.024,0.654,1.255,0.905,0.405,0.704,0.655,�k�k��,4.1,��
2020/06/13,05:00,0.716,1.027,0.653,1.254,0.903,0.405,0.703,0.656,�k�k��,3.5,��
2020/06/13,05:10,0.715,1.026,0.654,1.257,0.902,0.405,0.704,0.657,�k�k��,2.9,�L
2020/06/13,05:20,0.716,1.027,0.654,1.255,0.906,0.406,0.704,0.656,�k,2.6,�L
2020/06/13,05:30,0.715,1.025,0.652,1.257,0.904,0.406,0.704,0.656,�k�k��,2.6,��
2020/06/13,05:40,0.716,1.027,0.653,1.254,0.902,0.406,0.703,0.655,�k�k��,2.8,��
2020/06/13,05:50,0.716,1.025,0.653,1.254,0.904,0.406,0.702,0.654,�k�k��,2.9,��
2020/06/13,06:00,0.714,1.024,0.653,1.253,0.903,0.404,0.705,0.657,�k�k��,2.6,��
2020/06/13,06:10,0.717,1.025,0.653,1.255,0.904,0.405,0.702,0.656,�k�k��,2.8,��
2020/06/13,06:20,0.714,1.025,0.652,1.255,0.901,0.406,0.702,0.657,�k�k��,3.2,��
2020/06/13,06:30,0.717,1.027,0.654,1.256,0.904,0.404,0.704,0.656,�k�k��,2.8,��
2020/06/13,06:40,0.717,1.025,0.652,1.252,0.904,0.405,0.703,0.657,�k��,2.5,��
2020/06/13,06:50,0.716,1.026,0.652,1.255,0.901,0.404,0.705,0.654,�k��,2.3,��
2020/06/13,07:00,0.714,1.024,0.654,1.251,0.904,0.405,0.704,0.657,�k��,2.2,��
2020/06/13,07:10,0.714,1.025,0.655,1.257,0.904,0.404,0.704,0.654,���k��,1.7,�L
2020/06/13,07:20,0.714,1.024,0.653,1.254,0.904,0.404,0.702,0.656,�k��,1.5,��
2020/06/13,07:30,0.714,1.023,0.652,1.257,0.903,0.406,0.705,0.655,�k��,1.5,�L
2020/06/13,07:40,0.715,1.024,0.654,1.254,0.904,0.403,0.702,0.655,�k��,2.2,�L
2020/06/13,07:50,0.714,1.027,0.653,1.256,0.902,0.404,0.703,0.656,���k��,3.0,�L
2020/06/13,08:00,0.716,1.024,0.654,1.253,0.903,0.404,0.703,0.656,���k��,4.8,�L
2020/06/13,08:10,0.717,1.025,0.653,1.258,0.903,0.404,0.704,0.658,���k��,3.8,�L
2020/06/13,08:20,0.714,1.022,0.654,1.254,0.900,0.405,0.701,0.656,���k��,2.9,�L
2020/06/13,08:30,0.713,1.022,0.654,1.254,0.901,0.406,0.701,0.655,���k��,3.0,�L
2020/06/13,08:40,0.714,1.023,0.654,1.257,0.901,0.405,0.701,0.653,�쐼,4.1,�L
2020/06/13,08:50,0.716,1.021,0.655,1.254,0.900,0.405,0.698,0.652,�쐼,4.4,�L
2020/06/13,09:00,0.712,1.020,0.653,1.255,0.899,0.406,0.699,0.654,���쐼,4.7,�L
2020/06/13,09:10,0.712,1.016,0.654,1.255,0.899,0.405,0.698,0.653,���쐼,4.7,�L
2020/06/13,09:20,0.714,1.017,0.655,1.255,0.896,0.406,0.698,0.653,�쐼,4.8,�L
2020/06/13,09:30,0.711,1.014,0.653,1.252,0.897,0.405,0.700,0.651,���쐼,5.1,�L
2020/06/13,09:40,0.714,1.014,0.655,1.254,0.898,0.405,0.699,0.654,���쐼,5.1,�L
2020/06/13,09:50,0.713,1.013,0.653,1.252,0.899,0.406,0.697,0.653,�쐼,5.1,�L
2020/06/13,10:00,0.712,1.013,0.652,1.255,0.897,0.406,0.700,0.652,���쐼,4.0,�L
2020/06/13,10:10,0.711,1.012,0.653,1.252,0.896,0.406,0.697,0.653,�쐼,3.3,�L
2020/06/13,10:20,0.712,1.009,0.651,1.252,0.893,0.408,0.698,0.655,�쐼,3.9,�L
2020/06/13,10:30,0.712,1.011,0.653,1.252,0.893,0.408,0.698,0.652,�쐼,4.1,�L
2020/06/13,10:40,0.711,1.009,0.655,1.252,0.891,0.408,0.699,0.652,�쐼,4.1,�L
2020/06/13,10:50,0.711,1.006,0.652,1.251,0.887,0.409,0.697,0.651,��쐼,4.7,�L
2020/06/13,11:00,0.708,1.005,0.650,1.247,0.887,0.410,0.697,0.650,��쐼,3.8,�L
2020/06/13,11:10,0.709,1.003,0.651,1.247,0.888,0.407,0.696,0.651,��쐼,3.9,�L
2020/06/13,11:20,0.708,1.004,0.650,1.247,0.887,0.408,0.696,0.650,��쐼,3.5,�L
2020/06/13,11:30,0.707,1.002,0.651,1.246,0.884,0.409,0.696,0.652,��쐼,4.0,�L
2020/06/13,11:40,0.708,1.003,0.648,1.243,0.885,0.406,0.697,0.652,��쐼,3.7,�L
2020/06/13,11:50,0.707,1.002,0.649,1.246,0.884,0.405,0.697,0.650,��쐼,3.6,�L
2020/06/13,12:00,0.706,1.001,0.649,1.244,0.885,0.407,0.696,0.651,��쐼,3.1,�L
2020/06/13,12:10,0.707,1.001,0.647,1.242,0.885,0.406,0.695,0.650,�쐼,3.4,�L
2020/06/13,12:20,0.707,0.999,0.649,1.243,0.883,0.405,0.695,0.651,��쐼,3.4,�L
2020/06/13,12:30,0.706,1.003,0.647,1.241,0.885,0.406,0.697,0.649,��쐼,3.8,�L
2020/06/13,12:40,0.705,1.001,0.648,1.240,0.883,0.405,0.694,0.649,��쐼,3.6,�L
2020/06/13,12:50,0.705,1.000,0.647,1.239,0.882,0.406,0.695,0.650,��,4.9,�L
2020/06/13,13:00,0.704,0.998,0.649,1.239,0.879,0.406,0.694,0.651,��,6.9,�L
2020/06/13,13:10,0.703,0.997,0.647,1.238,0.877,0.405,0.694,0.649,��,7.9,�L
2020/06/13,13:20,0.703,0.995,0.645,1.240,0.878,0.406,0.695,0.649,��,7.9,�L
2020/06/13,13:30,0.704,0.991,0.644,1.234,0.874,0.405,0.694,0.649,��,7.3,�L
2020/06/13,13:40,0.700,0.990,0.645,1.236,0.873,0.404,0.691,0.646,��,6.7,�L
2020/06/13,13:50,0.703,0.990,0.644,1.233,0.873,0.405,0.692,0.648,��,5.5,�L
2020/06/13,14:00,0.702,0.990,0.646,1.234,0.873,0.405,0.692,0.646,��,4.4,�L
2020/06/13,14:10,0.702,0.988,0.645,1.232,0.872,0.405,0.692,0.648,��,5.6,�L
2020/06/13,14:20,0.702,0.988,0.644,1.233,0.870,0.404,0.691,0.646,��,7.0,�L
2020/06/13,14:30,0.701,0.988,0.644,1.232,0.872,0.404,0.692,0.647,��,6.3,�L
2020/06/13,14:40,0.700,0.988,0.643,1.230,0.872,0.404,0.692,0.646,��,5.3,�L
2020/06/13,14:50,0.700,0.988,0.642,1.228,0.869,0.404,0.692,0.646,��,4.9,�L
2020/06/13,15:00,0.698,0.988,0.644,1.230,0.870,0.404,0.689,0.647,��,5.2,�L
2020/06/13,15:10,0.699,0.987,0.641,1.231,0.869,0.402,0.691,0.644,��,5.4,�L
2020/06/13,15:20,0.699,0.987,0.641,1.228,0.871,0.403,0.691,0.646,��,4.4,�L
2020/06/13,15:30,0.701,0.989,0.642,1.228,0.872,0.403,0.691,0.646,��,4.0,�L
2020/06/13,15:40,0.698,0.990,0.642,1.227,0.871,0.403,0.693,0.645,��,5.3,�L
2020/06/13,15:50,0.699,0.991,0.642,1.227,0.871,0.403,0.692,0.647,��,5.3,�L
2020/06/13,16:00,0.696,0.989,0.641,1.227,0.867,0.404,0.692,0.646,��쐼,2.2,�L
2020/06/13,16:10,0.698,0.992,0.643,1.225,0.871,0.406,0.691,0.646,��,3.9,�L
2020/06/13,16:20,0.699,0.989,0.640,1.227,0.869,0.405,0.690,0.647,��,5.1,�L
2020/06/13,16:30,0.698,0.989,0.640,1.228,0.869,0.402,0.691,0.645,��,6.3,�L
2020/06/13,16:40,0.698,0.993,0.641,1.228,0.868,0.405,0.691,0.643,��쐼,4.2,�L
2020/06/13,16:50,0.697,0.990,0.641,1.225,0.870,0.403,0.689,0.646,��,4.2,�L
2020/06/13,17:00,0.697,0.989,0.639,1.227,0.870,0.401,0.692,0.647,��,4.9,��
2020/06/13,17:10,0.696,0.988,0.640,1.223,0.867,0.402,0.691,0.644,��,5.5,��
2020/06/13,17:20,0.695,0.988,0.638,1.227,0.869,0.402,0.690,0.647,��,6.4,��
2020/06/13,17:30,0.696,0.989,0.638,1.223,0.868,0.402,0.691,0.644,��,6.1,��
2020/06/13,17:40,0.695,0.989,0.638,1.224,0.868,0.402,0.692,0.644,��,5.9,��
2020/06/13,17:50,0.694,0.988,0.636,1.221,0.867,0.401,0.692,0.644,��,7.0,��
2020/06/13,18:00,0.694,0.987,0.636,1.222,0.866,0.400,0.691,0.644,��,7.0,��
2020/06/13,18:10,0.694,0.985,0.637,1.222,0.867,0.399,0.690,0.643,��,6.3,��
2020/06/13,18:20,0.693,0.985,0.637,1.223,0.864,0.398,0.691,0.646,��,6.8,��
2020/06/13,18:30,0.693,0.988,0.636,1.222,0.864,0.399,0.690,0.644,��,7.5,��
2020/06/13,18:40,0.692,0.987,0.638,1.222,0.865,0.399,0.690,0.645,��,6.3,��
2020/06/13,18:50,0.692,0.984,0.638,1.222,0.866,0.399,0.690,0.645,��,5.8,��
2020/06/13,19:00,0.692,0.986,0.637,1.225,0.868,0.399,0.691,0.646,��,5.5,��
2020/06/13,19:10,0.692,0.986,0.638,1.223,0.869,0.399,0.691,0.645,��,6.0,��
2020/06/13,19:20,0.695,0.990,0.638,1.224,0.870,0.399,0.693,0.646,��쐼,6.1,��
2020/06/13,19:30,0.693,0.986,0.638,1.225,0.869,0.399,0.693,0.646,��쐼,5.5,��
2020/06/13,19:40,0.695,0.989,0.638,1.221,0.869,0.400,0.693,0.648,��쐼,4.7,��
2020/06/13,19:50,0.695,0.989,0.639,1.222,0.869,0.401,0.694,0.646,��쐼,5.1,��
2020/06/13,20:00,0.695,0.989,0.638,1.223,0.868,0.399,0.693,0.647,��쐼,4.8,��
2020/06/13,20:10,0.696,0.988,0.639,1.227,0.869,0.399,0.692,0.648,��쐼,4.6,��
2020/06/13,20:20,0.694,0.988,0.637,1.224,0.870,0.400,0.692,0.647,��쐼,4.1,��
2020/06/13,20:30,0.694,0.990,0.639,1.223,0.868,0.400,0.695,0.646,��쐼,3.4,��
2020/06/13,20:40,0.695,0.988,0.639,1.221,0.869,0.400,0.694,0.647,�쐼,2.3,��
2020/06/13,20:50,0.695,0.987,0.638,1.224,0.871,0.399,0.693,0.646,��쐼,2.3,��
2020/06/13,21:00,0.694,0.988,0.636,1.226,0.870,0.402,0.694,0.647,�쐼,1.5,��
2020/06/13,21:10,0.696,0.987,0.637,1.224,0.868,0.400,0.693,0.648,��쐼,1.1,��
2020/06/13,21:20,0.697,0.988,0.637,1.224,0.872,0.401,0.694,0.646,��,0.9,��
2020/06/13,21:30,0.694,0.988,0.637,1.222,0.871,0.401,0.694,0.646,��쓌,2.3,��
2020/06/13,21:40,0.695,0.987,0.636,1.223,0.869,0.399,0.693,0.647,��쓌,2.0,��
2020/06/13,21:50,0.697,0.988,0.638,1.225,0.869,0.399,0.693,0.646,��,1.7,��
2020/06/13,22:00,0.697,0.987,0.638,1.223,0.869,0.398,0.693,0.646,��쐼,2.9,��
2020/06/13,22:10,0.697,0.987,0.638,1.224,0.869,0.399,0.693,0.647,�쐼,3.4,��
2020/06/13,22:20,0.695,0.988,0.637,1.222,0.868,0.400,0.694,0.647,�쐼,3.2,��
2020/06/13,22:30,0.695,0.989,0.637,1.225,0.869,0.398,0.693,0.647,�쐼,2.2,��
2020/06/13,22:40,0.695,0.989,0.637,1.223,0.870,0.399,0.694,0.648,��,1.2,��
2020/06/13,22:50,0.696,0.987,0.637,1.225,0.869,0.400,0.692,0.646,��쓌,0.6,��
2020/06/13,23:00,0.695,0.988,0.636,1.224,0.868,0.398,0.694,0.646,-,CALM,��
2020/06/13,23:10,0.694,0.988,0.637,1.221,0.869,0.399,0.692,0.647,�k�k��,0.9,��
2020/06/13,23:20,0.694,0.988,0.638,1.222,0.870,0.400,0.695,0.647,�k��,3.2,��
2020/06/13,23:30,0.696,0.986,0.638,1.222,0.868,0.399,0.694,0.646,�k��,4.8,��
2020/06/13,23:40,0.696,0.987,0.636,1.225,0.869,0.399,0.692,0.646,�k�k��,3.8,��
2020/06/13,23:50,0.695,0.985,0.637,1.223,0.870,0.399,0.692,0.646,�k�k��,3.3,��
